| time (UTC) | temp C | wind direction | speed KPH | gust KPH | rain 1hr cm | rain 24hr cm | rain mn cm | humidity % | barometer mb |
| 20260906205616 | 29 | 121 | 11.3 | 20.9 | 0.00 | 0.00 | 0.00 | 56 | 1008.8 |
| 20260906205139 | 29 | 172 | 4.8 | 16.1 | 0.00 | 0.00 | 0.00 | 59 | 1008.8 |
| 20260906204716 | 28 | 161 | 14.5 | 20.9 | 0.00 | 0.00 | 0.00 | 60 | 1009.1 |
| 20260906204236 | 28 | 164 | 11.3 | 20.9 | 0.00 | 0.00 | 0.00 | 60 | 1009.1 |
| 20260906203816 | 29 | 122 | 14.5 | 19.3 | 0.00 | 0.00 | 0.00 | 59 | 1009.1 |
| 20260906203415 | 29 | 136 | 17.7 | 22.5 | 0.00 | 0.00 | 0.00 | 60 | 1009.1 |
| 20260906202914 | 28 | 144 | 8.0 | 22.5 | 0.00 | 0.00 | 0.00 | 57 | 1009.1 |
| 20260906202514 | 29 | 125 | 3.2 | 19.3 | 0.00 | 0.00 | 0.00 | 59 | 1009.1 |
| 20260906202039 | 29 | 140 | 8.0 | 19.3 | 0.00 | 0.00 | 0.00 | 57 | 1009.1 |
| 20260906201640 | 29 | 136 | 16.1 | 19.3 | 0.00 | 0.00 | 0.00 | 59 | 1009.1 |
| 20260906201213 | 29 | 192 | 6.4 | 19.3 | 0.00 | 0.00 | 0.00 | 58 | 1009.1 |
| 20260906200740 | 29 | 160 | 9.7 | 16.1 | 0.00 | 0.00 | 0.00 | 60 | 1009.5 |
| 20260906200314 | 29 | 163 | 11.3 | 17.7 | 0.00 | 0.00 | 0.00 | 59 | 1009.5 |
| 20260906195842 | 29 | 153 | 11.3 | 17.7 | 0.00 | 0.00 | 0.00 | 60 | 1009.5 |
| 20260906195412 | 29 | 134 | 8.0 | 19.3 | 0.00 | 0.00 | 0.00 | 59 | 1009.5 |
| 20260906194913 | 29 | 208 | 3.2 | 19.3 | 0.00 | 0.00 | 0.00 | 59 | 1009.5 |
| 20260906194413 | 29 | 166 | 6.4 | 17.7 | 0.00 | 0.00 | 0.00 | 59 | 1009.5 |
| 20260906193912 | 29 | 184 | 1.6 | 17.7 | 0.00 | 0.00 | 0.00 | 56 | 1009.5 |
| 20260906193340 | 29 | 192 | 6.4 | 19.3 | 0.00 | 0.00 | 0.00 | 57 | 1009.5 |
| 20260906192840 | 29 | 181 | 8.0 | 19.3 | 0.00 | 0.00 | 0.00 | 57 | 1009.8 |
| 20260906192438 | 29 | 176 | 12.9 | 19.3 | 0.00 | 0.00 | 0.00 | 55 | 1009.8 |
| 20260906192012 | 29 | 180 | 12.9 | 14.5 | 0.00 | 0.00 | 0.00 | 56 | 1009.8 |
| 20260906191545 | 29 | 171 | 8.0 | 16.1 | 0.00 | 0.00 | 0.00 | 59 | 1009.8 |
| 20260906191113 | 28 | 193 | 14.5 | 16.1 | 0.00 | 0.00 | 0.00 | 58 | 1009.8 |
| 20260906190612 | 28 | 192 | 3.2 | 17.7 | 0.00 | 0.00 | 0.00 | 58 | 1009.8 |
| 20260906190141 | 28 | 167 | 8.0 | 19.3 | 0.00 | 0.00 | 0.00 | 57 | 1009.8 |
| 20260906185713 | 28 | 199 | 14.5 | 19.3 | 0.00 | 0.00 | 0.00 | 57 | 1009.8 |
| 20260906185239 | 28 | 186 | 9.7 | 19.3 | 0.00 | 0.00 | 0.00 | 57 | 1009.8 |
| 20260906184812 | 28 | 200 | 8.0 | 19.3 | 0.00 | 0.00 | 0.00 | 57 | 1010.2 |
| 20260906184343 | 28 | 199 | 17.7 | 19.3 | 0.00 | 0.00 | 0.00 | 57 | 1010.2 |
| 20260906183912 | 28 | 198 | 6.4 | 17.7 | 0.00 | 0.00 | 0.00 | 57 | 1010.2 |
| 20260906183413 | 28 | 185 | 4.8 | 19.3 | 0.00 | 0.00 | 0.00 | 58 | 1010.2 |
| 20260906182914 | 28 | 181 | 6.4 | 16.1 | 0.00 | 0.00 | 0.00 | 60 | 1010.2 |
| 20260906182412 | 28 | 170 | 6.4 | 16.1 | 0.00 | 0.00 | 0.00 | 58 | 1010.5 |
| 20260906181939 | 28 | 211 | 16.1 | 20.9 | 0.00 | 0.00 | 0.00 | 59 | 1010.5 |
| 20260906181510 | 28 | 205 | 12.9 | 20.9 | 0.00 | 0.00 | 0.00 | 59 | 1010.5 |
| 20260906181039 | 28 | 168 | 3.2 | 16.1 | 0.00 | 0.00 | 0.00 | 60 | 1010.5 |
| 20260906180613 | 28 | 185 | 11.3 | 17.7 | 0.00 | 0.00 | 0.00 | 58 | 1010.5 |
| 20260906180213 | 28 | 207 | 16.1 | 17.7 | 0.00 | 0.00 | 0.00 | 59 | 1010.8 |
| 20260906175711 | 28 | 192 | 12.9 | 17.7 | 0.00 | 0.00 | 0.00 | 58 | 1010.8 |
| 20260906175314 | 28 | 187 | 9.7 | 19.3 | 0.00 | 0.00 | 0.00 | 61 | 1010.8 |
| 20260906174844 | 27 | 186 | 8.0 | 17.7 | 0.00 | 0.00 | 0.00 | 57 | 1010.8 |
| 20260906174412 | 27 | 175 | 1.6 | 16.1 | 0.00 | 0.00 | 0.00 | 58 | 1010.8 |
| 20260906173942 | 27 | 200 | 14.5 | 17.7 | 0.00 | 0.00 | 0.00 | 57 | 1010.8 |
| 20260906173538 | 27 | 217 | 8.0 | 16.1 | 0.00 | 0.00 | 0.00 | 57 | 1010.8 |
| 20260906173111 | 27 | 199 | 9.7 | 16.1 | 0.00 | 0.00 | 0.00 | 60 | 1010.8 |
| 20260906172643 | 27 | 216 | 11.3 | 17.7 | 0.00 | 0.00 | 0.00 | 57 | 1010.8 |
| 20260906172145 | 27 | 199 | 3.2 | 17.7 | 0.00 | 0.00 | 0.00 | 59 | 1011.2 |
| 20260906171642 | 26 | 203 | 9.7 | 20.9 | 0.00 | 0.00 | 0.00 | 59 | 1011.2 |
| 20260906171143 | 26 | 207 | 8.0 | 20.9 | 0.00 | 0.00 | 0.00 | 60 | 1011.2 |
| 20260906170642 | 26 | 186 | 4.8 | 17.7 | 0.00 | 0.00 | 0.00 | 60 | 1011.2 |
| 20260906170140 | 26 | 175 | 12.9 | 17.7 | 0.00 | 0.00 | 0.00 | 61 | 1011.2 |
| 20260906165642 | 26 | 204 | 11.3 | 17.7 | 0.00 | 0.00 | 0.00 | 61 | 1011.2 |
| 20260906165143 | 26 | 198 | 8.0 | 17.7 | 0.00 | 0.00 | 0.00 | 62 | 1011.5 |
| 20260906164646 | 25 | 205 | 3.2 | 17.7 | 0.00 | 0.00 | 0.00 | 64 | 1011.5 |
| 20260906164153 | 25 | 200 | 12.9 | 19.3 | 0.00 | 0.00 | 0.00 | 63 | 1011.2 |
| 20260906163656 | 25 | 189 | 11.3 | 19.3 | 0.00 | 0.00 | 0.00 | 63 | 1011.5 |
| 20260906163212 | 25 | 180 | 12.9 | 17.7 | 0.00 | 0.00 | 0.00 | 65 | 1011.5 |
| 20260906162714 | 25 | 196 | 14.5 | 17.7 | 0.00 | 0.00 | 0.00 | 65 | 1011.5 |
| 20260906162239 | 24 | 193 | 4.8 | 17.7 | 0.00 | 0.00 | 0.00 | 65 | 1011.5 |
| 20260906161831 | 24 | 187 | 8.0 | 17.7 | 0.00 | 0.00 | 0.00 | 66 | 1011.5 |
| 20260906161338 | 24 | 225 | 16.1 | 19.3 | 0.00 | 0.00 | 0.00 | 69 | 1011.5 |
| 20260906160926 | 23 | 212 | 9.7 | 19.3 | 0.00 | 0.00 | 0.00 | 67 | 1011.5 |
| 20260906160426 | 23 | 198 | 11.3 | 19.3 | 0.00 | 0.00 | 0.00 | 68 | 1011.5 |
| 20260906155932 | 23 | 190 | 12.9 | 17.7 | 0.00 | 0.00 | 0.00 | 68 | 1011.5 |
| 20260906155441 | 23 | 204 | 9.7 | 17.7 | 0.00 | 0.00 | 0.00 | 68 | 1011.5 |
| 20260906154950 | 23 | 190 | 16.1 | 17.7 | 0.00 | 0.00 | 0.00 | 70 | 1011.5 |
| 20260906154507 | 23 | 217 | 12.9 | 17.7 | 0.00 | 0.00 | 0.00 | 70 | 1011.5 |
| 20260906154041 | 23 | 205 | 14.5 | 16.1 | 0.00 | 0.00 | 0.00 | 70 | 1011.5 |
| 20260906153541 | 22 | 193 | 6.4 | 16.1 | 0.00 | 0.00 | 0.00 | 72 | 1011.5 |
| 20260906153101 | 22 | 194 | 8.0 | 16.1 | 0.00 | 0.00 | 0.00 | 72 | 1011.9 |
| 20260906152619 | 22 | 182 | 11.3 | 16.1 | 0.00 | 0.00 | 0.00 | 72 | 1011.5 |
| 20260906152143 | 22 | 181 | 9.7 | 14.5 | 0.00 | 0.00 | 0.00 | 74 | 1011.5 |
| 20260906151555 | 21 | 172 | 0.0 | 14.5 | 0.00 | 0.00 | 0.00 | 75 | 1011.5 |
| 20260906151119 | 21 | 184 | 1.6 | 12.9 | 0.00 | 0.00 | 0.00 | 76 | 1011.5 |
| 20260906150646 | 21 | 186 | 3.2 | 12.9 | 0.00 | 0.00 | 0.00 | 74 | 1011.5 |
| 20260906150214 | 21 | 211 | 6.4 | 12.9 | 0.00 | 0.00 | 0.00 | 73 | 1011.5 |
| 20260906145638 | 21 | 203 | 1.6 | 12.9 | 0.00 | 0.00 | 0.00 | 76 | 1011.5 |
| 20260906145142 | 20 | 220 | 0.0 | 11.3 | 0.00 | 0.00 | 0.00 | 76 | 1011.9 |
| 20260906144605 | 20 | 219 | 0.0 | 11.3 | 0.00 | 0.00 | 0.00 | 76 | 1011.9 |
| 20260906144027 | 20 | 196 | 3.2 | 11.3 | 0.00 | 0.00 | 0.00 | 76 | 1012.2 |
| 20260906143555 | 20 | 200 | 4.8 | 9.7 | 0.00 | 0.00 | 0.00 | 77 | 1011.9 |
| 20260906143125 | 20 | 221 | 0.0 | 9.7 | 0.00 | 0.00 | 0.00 | 77 | 1012.2 |
| 20260906142655 | 20 | 232 | 1.6 | 11.3 | 0.00 | 0.00 | 0.00 | 78 | 1012.2 |
| 20260906142240 | 20 | 244 | 1.6 | 11.3 | 0.00 | 0.00 | 0.00 | 78 | 1012.2 |
| 20260906141739 | 19 | 222 | 1.6 | 9.7 | 0.00 | 0.00 | 0.00 | 80 | 1012.2 |
| 20260906141212 | 18 | 264 | 0.0 | 9.7 | 0.00 | 0.00 | 0.00 | 80 | 1012.2 |
| 20260906140635 | 18 | 265 | 0.0 | 3.2 | 0.00 | 0.00 | 0.00 | 84 | 1012.2 |
| 20260906140139 | 18 | 265 | 0.0 | 4.8 | 0.00 | 0.00 | 0.00 | 86 | 1012.2 |
| 20260906135640 | 18 | 265 | 0.0 | 4.8 | 0.00 | 0.00 | 0.00 | 87 | 1012.2 |
| 20260906135137 | 17 | 328 | 1.6 | 3.2 | 0.00 | 0.00 | 0.00 | 88 | 1012.2 |
| 20260906134700 | 17 | 329 | 0.0 | 1.6 | 0.00 | 0.00 | 0.00 | 89 | 1012.2 |
| 20260906134143 | 17 | 329 | 0.0 | 1.6 | 0.00 | 0.00 | 0.00 | 89 | 1012.2 |
| 20260906133728 | 16 | 329 | 0.0 | 1.6 | 0.00 | 0.00 | 0.00 | 90 | 1012.5 |
| 20260906133214 | 16 | 329 | 0.0 | 1.6 | 0.00 | 0.00 | 0.00 | 90 | 1012.2 |
| 20260906132740 | 16 | 329 | 0.0 | 1.6 | 0.00 | 0.00 | 0.00 | 91 | 1012.2 |
| 20260906132251 | 16 | 329 | 0.0 | 1.6 | 0.00 | 0.00 | 0.00 | 91 | 1012.2 |
| 20260906131843 | 15 | 329 | 0.0 | 1.6 | 0.00 | 0.00 | 0.00 | 91 | 1012.2 |
| 20260906131336 | 15 | 329 | 0.0 | 1.6 | 0.00 | 0.00 | 0.00 | 91 | 1012.2 |
| 20260906130843 | 15 | 329 | 0.0 | 4.8 | 0.00 | 0.00 | 0.00 | 91 | 1012.2 |
| 20260906130414 | 15 | 329 | 0.0 | 4.8 | 0.00 | 0.00 | 0.00 | 91 | 1012.2 |
| 20260906125955 | 15 | 329 | 3.2 | 3.2 | 0.00 | 0.00 | 0.00 | 91 | 1012.2 |
| 20260906125548 | 15 | 329 | 0.0 | 3.2 | 0.00 | 0.00 | 0.00 | 91 | 1012.2 |
| 20260906125036 | 14 | 329 | 0.0 | 4.8 | 0.00 | 0.00 | 0.00 | 91 | 1012.2 |
| 20260906124529 | 14 | 329 | 3.2 | 4.8 | 0.00 | 0.00 | 0.00 | 90 | 1012.2 |
| 20260906124024 | 14 | 329 | 3.2 | 4.8 | 0.00 | 0.00 | 0.00 | 90 | 1012.2 |
| 20260906123542 | 14 | 329 | 3.2 | 6.4 | 0.00 | 0.00 | 0.00 | 90 | 1012.2 |
| 20260906123114 | 14 | 329 | 4.8 | 4.8 | 0.00 | 0.00 | 0.00 | 90 | 1012.2 |
| 20260906122640 | 15 | 329 | 1.6 | 3.2 | 0.00 | 0.00 | 0.00 | 90 | 1012.5 |
| 20260906122215 | 15 | 329 | 0.0 | 6.4 | 0.00 | 0.00 | 0.00 | 90 | 1012.2 |
| 20260906121814 | 15 | 329 | 1.6 | 6.4 | 0.00 | 0.00 | 0.00 | 90 | 1012.2 |
| 20260906121339 | 15 | 330 | 3.2 | 4.8 | 0.00 | 0.00 | 0.00 | 90 | 1012.2 |
| 20260906120904 | 15 | 330 | 1.6 | 4.8 | 0.00 | 0.00 | 0.00 | 90 | 1012.2 |
| 20260906120438 | 15 | 331 | 1.6 | 6.4 | 0.00 | 0.00 | 0.00 | 89 | 1012.5 |
| 20260906120022 | 15 | 328 | 1.6 | 6.4 | 0.00 | 0.00 | 0.00 | 89 | 1012.2 |
| 20260906115601 | 15 | 329 | 3.2 | 8.0 | 0.00 | 0.00 | 0.00 | 89 | 1012.5 |
| 20260906115042 | 15 | 304 | 4.8 | 8.0 | 0.00 | 0.00 | 0.00 | 89 | 1012.5 |
| 20260906114602 | 15 | 258 | 3.2 | 6.4 | 0.00 | 0.00 | 0.00 | 89 | 1012.2 |
| 20260906114201 | 15 | 258 | 4.8 | 6.4 | 0.00 | 0.00 | 0.00 | 89 | 1012.2 |
| 20260906113705 | 15 | 253 | 3.2 | 6.4 | 0.00 | 0.00 | 0.00 | 90 | 1011.9 |
| 20260906113242 | 15 | 258 | 0.0 | 6.4 | 0.00 | 0.00 | 0.00 | 90 | 1011.9 |
| 20260906112841 | 15 | 258 | 1.6 | 6.4 | 0.00 | 0.00 | 0.00 | 91 | 1011.9 |
| 20260906112306 | 15 | 257 | 6.4 | 6.4 | 0.00 | 0.00 | 0.00 | 91 | 1011.5 |
| 20260906111801 | 15 | 244 | 6.4 | 6.4 | 0.00 | 0.00 | 0.00 | 91 | 1011.5 |
| 20260906111300 | 15 | 221 | 0.0 | 3.2 | 0.00 | 0.00 | 0.00 | 91 | 1011.5 |
| 20260906110801 | 15 | 221 | 3.2 | 4.8 | 0.00 | 0.00 | 0.00 | 90 | 1011.5 |
| 20260906110300 | 15 | 221 | 1.6 | 4.8 | 0.00 | 0.00 | 0.00 | 90 | 1011.5 |
| 20260906105759 | 14 | 221 | 1.6 | 4.8 | 0.00 | 0.00 | 0.00 | 90 | 1011.5 |
| 20260906105300 | 14 | 221 | 3.2 | 3.2 | 0.00 | 0.00 | 0.00 | 90 | 1011.5 |
| 20260906104759 | 15 | 221 | 0.0 | 3.2 | 0.00 | 0.00 | 0.00 | 90 | 1011.5 |
| 20260906104259 | 15 | 221 | 3.2 | 3.2 | 0.00 | 0.00 | 0.00 | 89 | 1011.5 |
| 20260906103759 | 15 | 221 | 3.2 | 3.2 | 0.00 | 0.00 | 0.00 | 89 | 1011.2 |
| 20260906103301 | 15 | 221 | 0.0 | 3.2 | 0.00 | 0.00 | 0.00 | 89 | 1011.2 |
| 20260906102758 | 15 | 221 | 0.0 | 3.2 | 0.00 | 0.00 | 0.00 | 89 | 1011.2 |
| 20260906102258 | 15 | 221 | 3.2 | 4.8 | 0.00 | 0.00 | 0.00 | 89 | 1011.2 |
| 20260906101758 | 15 | 221 | 3.2 | 4.8 | 0.00 | 0.00 | 0.00 | 89 | 1010.8 |
| 20260906101303 | 15 | 221 | 0.0 | 4.8 | 0.00 | 0.00 | 0.00 | 89 | 1010.8 |
| 20260906100758 | 15 | 221 | 3.2 | 4.8 | 0.00 | 0.00 | 0.00 | 89 | 1010.8 |
| 20260906100257 | 15 | 208 | 1.6 | 4.8 | 0.00 | 0.00 | 0.00 | 88 | 1010.8 |
| 20260906095757 | 15 | 207 | 1.6 | 3.2 | 0.00 | 0.00 | 0.00 | 88 | 1010.8 |
| 20260906095256 | 15 | 207 | 0.0 | 0.0 | 0.00 | 0.00 | 0.00 | 87 | 1010.8 |
| 20260906094756 | 15 | 207 | 0.0 | 0.0 | 0.00 | 0.00 | 0.00 | 87 | 1010.8 |
| 20260906094255 | 15 | 207 | 0.0 | 0.0 | 0.00 | 0.00 | 0.00 | 87 | 1010.8 |
| 20260906093755 | 15 | 207 | 0.0 | 0.0 | 0.00 | 0.00 | 0.00 | 86 | 1010.8 |
| 20260906093253 | 16 | 207 | 0.0 | 0.0 | 0.00 | 0.00 | 0.00 | 86 | 1010.5 |
| 20260906092754 | 16 | 207 | 0.0 | 0.0 | 0.00 | 0.00 | 0.00 | 85 | 1010.8 |
| 20260906092253 | 16 | 207 | 0.0 | 0.0 | 0.00 | 0.00 | 0.00 | 85 | 1010.5 |
| 20260906091754 | 16 | 207 | 0.0 | 1.6 | 0.00 | 0.00 | 0.00 | 84 | 1010.8 |
| 20260906091253 | 16 | 207 | 0.0 | 1.6 | 0.00 | 0.00 | 0.00 | 84 | 1010.5 |
| 20260906090752 | 16 | 207 | 0.0 | 0.0 | 0.00 | 0.00 | 0.00 | 84 | 1010.5 |
| 20260906090253 | 17 | 207 | 0.0 | 0.0 | 0.00 | 0.00 | 0.00 | 84 | 1010.5 |
| 20260906085754 | 17 | 207 | 0.0 | 0.0 | 0.00 | 0.00 | 0.00 | 84 | 1010.5 |
| 20260906085251 | 17 | 207 | 0.0 | 1.6 | 0.00 | 0.00 | 0.00 | 84 | 1010.5 |
| 20260906084852 | 17 | 207 | 0.0 | 1.6 | 0.00 | 0.00 | 0.00 | 85 | 1010.2 |
| 20260906084351 | 16 | 207 | 0.0 | 0.0 | 0.00 | 0.00 | 0.00 | 86 | 1010.2 |
| 20260906083951 | 16 | 207 | 0.0 | 0.0 | 0.00 | 0.00 | 0.00 | 85 | 1010.5 |
| 20260906083452 | 16 | 213 | 0.0 | 3.2 | 0.00 | 0.00 | 0.00 | 84 | 1010.2 |
| 20260906082952 | 17 | 213 | 0.0 | 3.2 | 0.00 | 0.00 | 0.00 | 83 | 1010.2 |
| 20260906082452 | 17 | 213 | 0.0 | 0.0 | 0.00 | 0.00 | 0.00 | 83 | 1010.5 |
| 20260906081949 | 17 | 212 | 0.0 | 0.0 | 0.00 | 0.00 | 0.00 | 82 | 1010.5 |
| 20260906081450 | 17 | 213 | 0.0 | 0.0 | 0.00 | 0.00 | 0.00 | 82 | 1010.5 |
| 20260906080950 | 17 | 213 | 0.0 | 0.0 | 0.00 | 0.00 | 0.00 | 82 | 1010.5 |
| 20260906080450 | 17 | 213 | 0.0 | 3.2 | 0.00 | 0.00 | 0.00 | 81 | 1010.5 |
| 20260906075952 | 18 | 213 | 0.0 | 4.8 | 0.00 | 0.00 | 0.00 | 81 | 1010.5 |
| 20260906075449 | 18 | 212 | 3.2 | 8.0 | 0.00 | 0.00 | 0.00 | 81 | 1010.5 |
| 20260906074949 | 18 | 211 | 3.2 | 11.3 | 0.00 | 0.00 | 0.00 | 80 | 1010.5 |
| 20260906074446 | 18 | 209 | 3.2 | 9.7 | 0.00 | 0.00 | 0.00 | 80 | 1010.5 |
| 20260906073946 | 18 | 205 | 4.8 | 11.3 | 0.00 | 0.00 | 0.00 | 80 | 1010.5 |
| 20260906073449 | 18 | 190 | 6.4 | 11.3 | 0.00 | 0.00 | 0.00 | 79 | 1010.8 |
| 20260906072947 | 18 | 186 | 6.4 | 11.3 | 0.00 | 0.00 | 0.00 | 79 | 1010.8 |
| 20260906072448 | 18 | 217 | 6.4 | 9.7 | 0.00 | 0.00 | 0.00 | 79 | 1010.8 |
| 20260906071946 | 18 | 210 | 4.8 | 12.9 | 0.00 | 0.00 | 0.00 | 79 | 1010.8 |
| 20260906071446 | 18 | 218 | 1.6 | 12.9 | 0.00 | 0.00 | 0.00 | 78 | 1010.8 |
| 20260906070951 | 19 | 198 | 3.2 | 11.3 | 0.00 | 0.00 | 0.00 | 78 | 1010.8 |
| 20260906070451 | 19 | 207 | 3.2 | 12.9 | 0.00 | 0.00 | 0.00 | 77 | 1010.5 |
| 20260906065944 | 20 | 207 | 8.0 | 12.9 | 0.00 | 0.00 | 0.00 | 77 | 1010.8 |
| 20260906065444 | 20 | 198 | 8.0 | 11.3 | 0.00 | 0.00 | 0.00 | 76 | 1010.8 |
| 20260906064844 | 20 | 182 | 9.7 | 11.3 | 0.00 | 0.00 | 6.05 | 75 | 1010.5 |
| 20260906064343 | 20 | 180 | 6.4 | 17.7 | 0.00 | 0.00 | 6.05 | 74 | 1010.8 |
| 20260906063843 | 20 | 173 | 4.8 | 19.3 | 0.00 | 0.00 | 6.05 | 73 | 1010.8 |
| 20260906063343 | 20 | 156 | 14.5 | 19.3 | 0.00 | 0.00 | 6.05 | 73 | 1010.8 |
| 20260906062843 | 20 | 166 | 9.7 | 16.1 | 0.00 | 0.00 | 6.05 | 73 | 1010.8 |
| 20260906062342 | 20 | 161 | 9.7 | 14.5 | 0.00 | 0.00 | 6.05 | 73 | 1010.8 |
| 20260906061840 | 20 | 155 | 9.7 | 14.5 | 0.00 | 0.00 | 6.05 | 74 | 1010.8 |
| 20260906061341 | 20 | 153 | 8.0 | 14.5 | 0.00 | 0.00 | 6.05 | 75 | 1010.8 |
| 20260906060839 | 20 | 165 | 3.2 | 14.5 | 0.00 | 0.00 | 6.05 | 77 | 1011.2 |
| 20260906060340 | 20 | 157 | 4.8 | 14.5 | 0.00 | 0.00 | 6.05 | 79 | 1010.8 |
| 20260906055842 | 19 | 202 | 0.0 | 3.2 | 0.00 | 0.00 | 6.05 | 83 | 1011.2 |
| 20260906055342 | 18 | 202 | 0.0 | 3.2 | 0.00 | 0.00 | 6.05 | 83 | 1010.8 |
| 20260906054840 | 18 | 202 | 0.0 | 6.4 | 0.00 | 0.00 | 6.05 | 83 | 1010.8 |
| 20260906054347 | 19 | 202 | 1.6 | 6.4 | 0.00 | 0.00 | 6.05 | 83 | 1010.8 |
| 20260906053841 | 19 | 169 | 6.4 | 6.4 | 0.00 | 0.00 | 6.05 | 82 | 1010.8 |
| 20260906053341 | 19 | 160 | 1.6 | 3.2 | 0.00 | 0.00 | 6.05 | 82 | 1010.8 |
| 20260906052838 | 20 | 160 | 0.0 | 3.2 | 0.00 | 0.00 | 6.05 | 82 | 1010.8 |
| 20260906052240 | 20 | 160 | 0.0 | 3.2 | 0.00 | 0.00 | 6.05 | 82 | 1010.8 |
| 20260906051739 | 20 | 159 | 0.0 | 3.2 | 0.00 | 0.00 | 6.05 | 82 | 1010.8 |
| 20260906051238 | 20 | 160 | 0.0 | 3.2 | 0.00 | 0.00 | 6.05 | 82 | 1010.5 |
| 20260906050736 | 20 | 160 | 1.6 | 3.2 | 0.00 | 0.00 | 6.05 | 82 | 1010.5 |
| 20260906050237 | 20 | 159 | 1.6 | 11.3 | 0.00 | 0.00 | 6.05 | 82 | 1010.2 |
| 20260906045836 | 20 | 159 | 1.6 | 12.9 | 0.00 | 0.00 | 6.05 | 82 | 1010.5 |
| 20260906045337 | 20 | 163 | 8.0 | 12.9 | 0.00 | 0.00 | 6.05 | 82 | 1010.5 |
| 20260906044837 | 20 | 180 | 8.0 | 12.9 | 0.00 | 0.00 | 6.05 | 83 | 1010.5 |
| 20260906044337 | 20 | 199 | 8.0 | 8.0 | 0.00 | 0.00 | 6.05 | 83 | 1010.5 |
| 20260906043937 | 20 | 194 | 3.2 | 4.8 | 0.00 | 0.00 | 6.05 | 83 | 1010.5 |
| 20260906043437 | 20 | 194 | 1.6 | 11.3 | 0.00 | 0.00 | 6.05 | 83 | 1010.5 |
| 20260906042936 | 20 | 194 | 3.2 | 11.3 | 0.00 | 0.00 | 6.05 | 83 | 1010.5 |
| 20260906042435 | 20 | 163 | 8.0 | 9.7 | 0.00 | 0.00 | 6.05 | 82 | 1010.8 |
| 20260906041935 | 20 | 159 | 3.2 | 4.8 | 0.00 | 0.00 | 6.05 | 81 | 1010.8 |
| 20260906041439 | 20 | 157 | 1.6 | 4.8 | 0.00 | 0.00 | 6.05 | 81 | 1010.8 |
| 20260906040935 | 20 | 157 | 1.6 | 9.7 | 0.00 | 0.00 | 6.05 | 80 | 1010.5 |
| 20260906040433 | 20 | 157 | 0.0 | 11.3 | 0.00 | 0.00 | 6.05 | 80 | 1010.5 |
| 20260906035935 | 20 | 164 | 6.4 | 14.5 | 0.00 | 0.00 | 6.05 | 80 | 1010.8 |
| 20260906035536 | 20 | 175 | 9.7 | 14.5 | 0.00 | 0.00 | 6.05 | 81 | 1010.8 |
| 20260906035033 | 20 | 161 | 9.7 | 11.3 | 0.00 | 0.00 | 6.05 | 82 | 1010.5 |
| 20260906034532 | 20 | 171 | 6.4 | 6.4 | 0.00 | 0.00 | 6.05 | 82 | 1010.5 |
| 20260906034032 | 20 | 105 | 3.2 | 4.8 | 0.00 | 0.00 | 6.05 | 81 | 1010.5 |
| 20260906033531 | 20 | 105 | 0.0 | 9.7 | 0.00 | 0.00 | 6.05 | 81 | 1010.2 |
| 20260906033034 | 20 | 105 | 1.6 | 9.7 | 0.00 | 0.00 | 6.05 | 81 | 1010.2 |
| 20260906032534 | 20 | 113 | 3.2 | 11.3 | 0.00 | 0.00 | 6.05 | 80 | 1010.2 |
| 20260906032032 | 20 | 111 | 4.8 | 11.3 | 0.00 | 0.00 | 6.05 | 79 | 1010.2 |
| 20260906031531 | 20 | 98 | 6.4 | 14.5 | 0.00 | 0.00 | 6.05 | 79 | 1010.2 |
| 20260906031130 | 20 | 98 | 3.2 | 20.9 | 0.00 | 0.00 | 6.05 | 79 | 1010.2 |
| 20260906030632 | 20 | 118 | 14.5 | 25.7 | 0.00 | 0.00 | 6.05 | 79 | 1010.2 |
| 20260906030131 | 21 | 129 | 14.5 | 25.7 | 0.00 | 0.00 | 6.05 | 78 | 1009.8 |
| 20260906025638 | 21 | 132 | 16.1 | 25.7 | 0.00 | 0.00 | 6.05 | 78 | 1009.5 |
| 20260906025230 | 21 | 126 | 12.9 | 30.6 | 0.00 | 0.00 | 6.05 | 78 | 1009.5 |
| 20260906024731 | 21 | 122 | 22.5 | 33.8 | 0.00 | 0.00 | 6.05 | 78 | 1009.5 |
| 20260906024230 | 21 | 127 | 16.1 | 40.2 | 0.00 | 0.00 | 6.05 | 77 | 1009.8 |
| 20260906023730 | 21 | 133 | 22.5 | 45.1 | 0.00 | 0.00 | 6.05 | 77 | 1010.2 |
| 20260906023239 | 21 | 161 | 30.6 | 45.1 | 0.00 | 0.00 | 6.05 | 79 | 1010.2 |
| 20260906022831 | 21 | 143 | 29.0 | 41.8 | 0.00 | 0.00 | 6.05 | 79 | 1010.2 |
| 20260906022339 | 21 | 146 | 27.4 | 40.2 | 0.00 | 0.00 | 6.05 | 81 | 1010.2 |
| 20260906021929 | 20 | 131 | 22.5 | 40.2 | 0.00 | 0.00 | 6.05 | 83 | 1010.2 |
| 20260906021432 | 21 | 157 | 30.6 | 45.1 | 0.00 | 0.00 | 6.05 | 83 | 1010.2 |
| 20260906020927 | 21 | 128 | 25.7 | 45.1 | 0.00 | 0.00 | 6.05 | 83 | 1010.2 |
| 20260906020429 | 21 | 148 | 40.2 | 46.7 | 0.00 | 0.00 | 6.05 | 82 | 1009.8 |
| 20260906015928 | 21 | 130 | 32.2 | 45.1 | 0.00 | 0.00 | 6.05 | 82 | 1009.8 |
| 20260906015428 | 21 | 160 | 25.7 | 48.3 | 0.00 | 0.00 | 6.05 | 81 | 1009.8 |
| 20260906014938 | 22 | 164 | 25.7 | 48.3 | 0.00 | 0.00 | 6.05 | 74 | 1009.1 |
| 20260906014528 | 22 | 146 | 25.7 | 40.2 | 0.00 | 0.00 | 6.05 | 70 | 1008.8 |
| 20260906014038 | 22 | 142 | 24.1 | 33.8 | 0.00 | 0.00 | 6.05 | 75 | 1008.8 |
| 20260906013629 | 22 | 139 | 24.1 | 40.2 | 0.00 | 0.00 | 6.05 | 81 | 1008.8 |
| 20260906013129 | 22 | 141 | 22.5 | 40.2 | 0.00 | 0.00 | 6.05 | 80 | 1009.1 |
| 20260906012627 | 22 | 149 | 30.6 | 35.4 | 0.00 | 0.00 | 6.05 | 79 | 1008.8 |
| 20260906012129 | 22 | 169 | 22.5 | 32.2 | 0.00 | 0.00 | 6.05 | 76 | 1009.1 |
| 20260906011636 | 21 | 157 | 17.7 | 24.1 | 0.00 | 0.00 | 6.05 | 75 | 1009.5 |
| 20260906011227 | 21 | 166 | 9.7 | 17.7 | 0.00 | 0.00 | 6.05 | 78 | 1009.5 |
| 20260906010738 | 20 | 142 | 6.4 | 8.0 | 0.00 | 0.00 | 6.05 | 81 | 1009.5 |
| 20260906010326 | 20 | 98 | 4.8 | 9.7 | 0.00 | 0.00 | 6.05 | 80 | 1009.8 |
| 20260906005842 | 20 | 99 | 3.2 | 9.7 | 0.00 | 0.00 | 6.05 | 79 | 1009.5 |
| 20260906005427 | 20 | 79 | 4.8 | 12.9 | 0.00 | 0.00 | 6.05 | 77 | 1009.1 |
| 20260906004926 | 20 | 131 | 6.4 | 20.9 | 0.00 | 0.00 | 6.05 | 77 | 1009.1 |
| 20260906004425 | 20 | 127 | 12.9 | 22.5 | 0.00 | 0.00 | 6.05 | 76 | 1009.1 |
| 20260906004026 | 20 | 142 | 16.1 | 24.1 | 0.00 | 0.00 | 6.05 | 78 | 1008.8 |
| 20260906003542 | 20 | 125 | 19.3 | 24.1 | 0.00 | 0.00 | 6.05 | 81 | 1008.8 |
| 20260906003127 | 20 | 134 | 11.3 | 19.3 | 0.00 | 0.00 | 6.05 | 85 | 1009.1 |
| 20260906002724 | 20 | 138 | 8.0 | 30.6 | 0.00 | 0.00 | 6.05 | 88 | 1009.5 |
| 20260906002224 | 20 | 124 | 14.5 | 30.6 | 0.00 | 0.00 | 6.05 | 90 | 1009.8 |
| 20260906001825 | 20 | 151 | 8.0 | 19.3 | 0.00 | 0.00 | 6.05 | 91 | 1010.2 |
| 20260906001340 | 20 | 252 | 6.4 | 20.9 | 0.00 | 0.00 | 6.05 | 91 | 1010.2 |
| 20260906000924 | 20 | 250 | 1.6 | 20.9 | 0.00 | 0.00 | 6.05 | 91 | 1010.2 |
| 20260906000425 | 20 | 235 | 6.4 | 19.3 | 0.00 | 0.00 | 6.05 | 91 | 1010.2 |
| 20260905235924 | 20 | 255 | 11.3 | 11.3 | 0.00 | 0.00 | 6.05 | 91 | 1010.2 |
| 20260905235422 | 20 | 170 | 3.2 | 14.5 | 0.00 | 0.00 | 6.05 | 91 | 1009.8 |
| 20260905234923 | 20 | 167 | 8.0 | 17.7 | 0.00 | 0.00 | 6.02 | 90 | 1009.5 |
| 20260905234424 | 20 | 157 | 8.0 | 17.7 | 0.00 | 0.00 | 5.99 | 90 | 1009.1 |
| 20260905233924 | 20 | 172 | 3.2 | 12.9 | 0.00 | 0.00 | 5.97 | 89 | 1009.5 |
| 20260905233424 | 20 | 189 | 4.8 | 16.1 | 0.00 | 0.00 | 5.97 | 89 | 1009.1 |
| 20260905232924 | 20 | 138 | 11.3 | 20.9 | 0.00 | 0.00 | 5.92 | 88 | 1008.8 |
| 20260905232523 | 21 | 157 | 8.0 | 20.9 | 0.00 | 0.00 | 5.84 | 87 | 1008.8 |
| 20260905232040 | 21 | 178 | 20.9 | 20.9 | 0.00 | 0.00 | 5.61 | 86 | 1009.5 |
| 20260905231636 | 21 | 160 | 9.7 | 40.2 | 0.00 | 0.00 | 5.41 | 86 | 1008.5 |
| 20260905231224 | 21 | 123 | 20.9 | 45.1 | 0.00 | 0.00 | 5.23 | 86 | 1008.5 |
| 20260905230741 | 20 | 130 | 37.0 | 45.1 | 0.00 | 0.00 | 4.95 | 85 | 1008.5 |
| 20260905230322 | 19 | 151 | 25.7 | 54.7 | 0.00 | 0.00 | 4.83 | 87 | 1008.8 |
| 20260905225840 | 20 | 126 | 32.2 | 54.7 | 0.00 | 0.00 | 4.60 | 88 | 1008.5 |
| 20260905225424 | 19 | 130 | 33.8 | 54.7 | 0.00 | 0.00 | 4.29 | 85 | 1008.1 |
| 20260905224923 | 19 | 113 | 32.2 | 48.3 | 0.00 | 0.00 | 3.94 | 83 | 1008.5 |
| 20260905224420 | 20 | 98 | 17.7 | 38.6 | 0.00 | 0.00 | 3.53 | 78 | 1008.8 |
| 20260905223922 | 20 | 113 | 20.9 | 27.4 | 0.00 | 0.00 | 3.30 | 85 | 1010.2 |
| 20260905223447 | 21 | 156 | 11.3 | 27.4 | 0.00 | 0.00 | 2.57 | 80 | 1009.5 |
| 20260905223033 | 21 | 134 | 6.4 | 33.8 | 0.00 | 0.00 | 2.13 | 76 | 1010.2 |
| 20260905222553 | 22 | 84 | 6.4 | 33.8 | 0.00 | 0.00 | 1.35 | 77 | 1009.5 |
| 20260905222126 | 23 | 22 | 19.3 | 38.6 | 0.00 | 0.00 | 0.84 | 72 | 1009.1 |
| 20260905221629 | 24 | 345 | 19.3 | 51.5 | 0.00 | 0.00 | 0.48 | 72 | 1008.5 |
| 20260905221131 | 23 | 5 | 25.7 | 51.5 | 0.00 | 0.00 | 0.30 | 72 | 1007.1 |
| 20260905220631 | 24 | 300 | 25.7 | 40.2 | 0.00 | 0.00 | 0.10 | 65 | 1006.8 |
| 20260905220145 | 25 | 322 | 27.4 | 33.8 | 0.00 | 0.00 | 0.03 | 63 | 1007.5 |
| 20260905215731 | 27 | 20 | 14.5 | 16.1 | 0.00 | 0.00 | 0.03 | 64 | 1007.5 |
| 20260905215253 | 27 | 88 | 4.8 | 19.3 | 0.00 | 0.00 | 0.03 | 61 | 1007.5 |
| 20260905214830 | 28 | 90 | 9.7 | 19.3 | 0.00 | 0.00 | 0.03 | 57 | 1007.1 |
| 20260905214347 | 28 | 81 | 16.1 | 19.3 | 0.00 | 0.00 | 0.03 | 57 | 1006.8 |
| 20260905213924 | 28 | 90 | 11.3 | 19.3 | 0.00 | 0.00 | 0.03 | 55 | 1006.8 |
| 20260905213431 | 28 | 95 | 4.8 | 19.3 | 0.00 | 0.00 | 0.03 | 55 | 1006.8 |
| 20260905212929 | 28 | 113 | 11.3 | 24.1 | 0.00 | 0.00 | 0.03 | 55 | 1007.1 |
| 20260905212429 | 29 | 128 | 12.9 | 24.1 | 0.00 | 0.00 | 0.00 | 51 | 1006.1 |
| 20260905211952 | 30 | 160 | 9.7 | 24.1 | 0.00 | 0.00 | 0.00 | 49 | 1006.4 |
| 20260905211529 | 30 | 129 | 14.5 | 24.1 | 0.00 | 0.00 | 0.00 | 49 | 1006.4 |
| 20260905211050 | 30 | 140 | 11.3 | 25.7 | 0.00 | 0.00 | 0.00 | 45 | 1006.4 |
| 20260905210630 | 30 | 140 | 14.5 | 25.7 | 0.00 | 0.00 | 0.00 | 46 | 1005.8 |
| 20260905210129 | 30 | 137 | 11.3 | 24.1 | 0.00 | 0.00 | 0.00 | 45 | 1005.8 |